Taylorville, IL

8:05 AM CDT on August 27, 2016 (GMT -0500)
Taylorville Municipal

Weather History for KTAZ - November, 2011

Change the Weather History Date:

Tuesday, November 15, 2011

  Actual Average (KSPI) Record (KSPI)
Temperature  
Mean Temperature 54 °F 44 °F  
Max Temperature 62 °F 53 °F 78 °F (1955)
Min Temperature 46 °F 34 °F 11 °F (1940)
Degree Days  
Heating Degree Days 11 21  
Month to date heating degree days 275  
Since 1 July heating degree days 685  
Cooling Degree Days 0 0  
Month to date cooling degree days 0  
Year to date cooling degree days 1121  
Growing Degree Days 4 (Base 50)    
Moisture  
Dew Point 50 °F    
Average Humidity 86    
Maximum Humidity 100    
Minimum Humidity 72    
Precipitation  
Precipitation 0.00 in 0.11 in 2.36 in (1964)
Month to date precipitation 1.58  
Year to date precipitation 33.28  
Snow  
Snow 0.00 in 0.00 in 7.00 in (1932)
Month to date snowfall 0.1  
Since 1 July snowfall 0.1  
Since 1 September snowfall 0.1  
Snow Depth -    
Sea Level Pressure  
Sea Level Pressure 29.78 in    
Wind  
Wind Speed 9 mph (South)    
Max Wind Speed 18 mph    
Max Gust Speed 24 mph    
Visibility 9 miles    
Events      
T = Trace of Precipitation, MM = Missing Value Source: NWS Daily Summary

Daily Weather History Graph

Daily Weather History Graph

Search for Another Location

Airport or City:

Trip Planner

Search our weather history database for the weather conditions in past years. The results will help you decide how hot, cold, wet, or windy it might be!

Date:

Astronomy

Nov. 15, 2011 Rise Set
Actual Time 6:41 AM CST 4:42 PM CST
Civil Twilight 6:12 AM CST 5:10 PM CST
Nautical Twilight 5:39 AM CST 5:43 PM CST
Astronomical Twilight 5:08 AM CST 6:15 PM CST
Moon 8:51 PM CST (11/15) 10:40 AM CST (11/15)
Length of Visible Light 10h 58m
Length of Day
10h 01m
Waning Gibbous, 79% of the Moon is Illuminated
Nov 15
Waning Gibbous
Nov 18
Last Quarter
Nov 25
New
Dec 2
First Quarter
Dec 10
Full

Hourly Weather History & Observations

Time (CST) Temp. Windchill Dew Point Humidity Pressure Visibility Wind Dir Wind Speed Gust Speed Precip Events Conditions
12:15 AM 53.6 °F - 44.6 °F 72% 29.78 in 10.0 mi WSW 8.1 mph - N/A   Clear
12:35 AM 53.6 °F - 44.6 °F 72% 29.78 in 10.0 mi WSW 5.8 mph - N/A   Clear
12:55 AM 53.6 °F - 44.6 °F 72% 29.78 in 10.0 mi WSW 5.8 mph - N/A   Clear
1:15 AM 51.8 °F - 44.6 °F 76% 29.78 in 10.0 mi SW 5.8 mph - N/A   Clear
1:35 AM 51.8 °F - 44.6 °F 76% 29.78 in 10.0 mi WSW 5.8 mph - N/A   Clear
2:55 AM 50.0 °F - 42.8 °F 76% 29.78 in 10.0 mi SSW 4.6 mph - N/A   Clear
3:15 AM 48.2 °F - 42.8 °F 82% 29.77 in 10.0 mi South 3.5 mph - N/A   Clear
3:35 AM 48.2 °F - 42.8 °F 82% 29.78 in 10.0 mi Calm Calm - N/A   Clear
3:55 AM 48.2 °F - 42.8 °F 82% 29.79 in 10.0 mi Calm Calm - N/A   Clear
4:15 AM 48.2 °F - 42.8 °F 82% 29.79 in 10.0 mi Calm Calm - N/A   Clear
4:35 AM 46.4 °F 43.5 °F 42.8 °F 87% 29.79 in 10.0 mi SSE 5.8 mph - N/A   Clear
4:55 AM 46.4 °F 44.3 °F 42.8 °F 87% 29.78 in 10.0 mi SSE 4.6 mph - N/A   Clear
5:15 AM 46.4 °F 44.3 °F 42.8 °F 87% 29.78 in 10.0 mi SSE 4.6 mph - N/A   Clear
5:35 AM 46.4 °F 44.3 °F 42.8 °F 87% 29.77 in 10.0 mi SSE 4.6 mph - N/A   Clear
5:55 AM 46.4 °F 42.4 °F 42.8 °F 87% 29.77 in 10.0 mi South 8.1 mph - N/A   Clear
7:15 AM 48.2 °F - 44.6 °F 87% 29.79 in 10.0 mi South 9.2 mph - N/A   Clear
7:35 AM 48.2 °F - 46.4 °F 93% 29.79 in 10.0 mi South 11.5 mph - N/A   Clear
7:55 AM 50.0 °F - 48.2 °F 94% 29.79 in 10.0 mi South 11.5 mph - N/A   Clear
8:15 AM 51.8 °F - 48.2 °F 88% 29.79 in 10.0 mi South 12.7 mph - N/A   Clear
8:35 AM 53.6 °F - 50.0 °F 88% 29.79 in 10.0 mi South 13.8 mph - N/A   Clear
8:55 AM 53.6 °F - 50.0 °F 88% 29.80 in 10.0 mi South 11.5 mph 17.3 mph N/A   Clear
9:15 AM 53.6 °F - 50.0 °F 88% 29.80 in 10.0 mi South 16.1 mph 21.9 mph N/A   Mostly Cloudy
9:35 AM 53.6 °F - 51.8 °F 94% 29.81 in 10.0 mi SSW 16.1 mph 21.9 mph N/A   Mostly Cloudy
9:55 AM 55.4 °F - 51.8 °F 88% 29.81 in 10.0 mi South 17.3 mph 23.0 mph N/A   Overcast
10:15 AM 55.4 °F - 51.8 °F 88% 29.81 in 10.0 mi South 18.4 mph 21.9 mph N/A   Overcast
10:35 AM 55.4 °F - 51.8 °F 88% 29.81 in 10.0 mi SSW 17.3 mph 24.2 mph N/A   Overcast
10:55 AM 55.4 °F - 51.8 °F 88% 29.81 in 10.0 mi South 13.8 mph - N/A   Overcast
11:15 AM 55.4 °F - 51.8 °F 88% 29.80 in 10.0 mi SW 9.2 mph - N/A   Overcast
11:35 AM 55.4 °F - 53.6 °F 94% 29.79 in 10.0 mi SSW 11.5 mph - N/A   Overcast
11:55 AM 57.2 °F - 53.6 °F 88% 29.78 in 10.0 mi SW 15.0 mph 18.4 mph N/A   Overcast
12:15 PM 57.2 °F - 51.8 °F 82% 29.77 in 10.0 mi SSW 12.7 mph - N/A   Overcast
12:35 PM 59.0 °F - 53.6 °F 82% 29.77 in 10.0 mi SSW 12.7 mph - N/A   Overcast
12:55 PM 59.0 °F - 53.6 °F 82% 29.76 in 10.0 mi SSW 12.7 mph 16.1 mph N/A   Overcast
1:15 PM 59.0 °F - 53.6 °F 82% 29.75 in 10.0 mi South 15.0 mph 18.4 mph N/A   Overcast
1:35 PM 60.8 °F - 53.6 °F 77% 29.75 in 10.0 mi South 10.4 mph 13.8 mph N/A   Overcast
2:15 PM 60.8 °F - 53.6 °F 77% 29.74 in 10.0 mi South 11.5 mph - N/A   Overcast
2:35 PM 62.6 °F - 53.6 °F 72% 29.74 in 10.0 mi South 12.7 mph - N/A   Scattered Clouds
2:55 PM 60.8 °F - 53.6 °F 77% 29.73 in 10.0 mi South 11.5 mph 18.4 mph N/A   Scattered Clouds
3:15 PM 62.6 °F - 53.6 °F 72% 29.74 in 10.0 mi South 11.5 mph - N/A   Scattered Clouds
3:35 PM 60.8 °F - 53.6 °F 77% 29.74 in 10.0 mi South 15.0 mph - N/A   Clear
3:55 PM 60.8 °F - 53.6 °F 77% 29.75 in 10.0 mi South 11.5 mph - N/A   Scattered Clouds
4:15 PM 59.0 °F - 53.6 °F 82% 29.76 in 10.0 mi South 10.4 mph - N/A   Mostly Cloudy
4:35 PM 59.0 °F - 53.6 °F 82% 29.76 in 10.0 mi South 13.8 mph - N/A   Mostly Cloudy
4:55 PM 57.2 °F - 53.6 °F 88% 29.76 in 10.0 mi South 10.4 mph - N/A   Scattered Clouds
5:15 PM 57.2 °F - 55.4 °F 94% 29.76 in 10.0 mi South 12.7 mph - N/A   Scattered Clouds
5:35 PM 55.4 °F - 53.6 °F 94% 29.77 in 10.0 mi South 11.5 mph - N/A   Clear
5:55 PM 55.4 °F - 53.6 °F 94% 29.78 in 10.0 mi South 10.4 mph - N/A   Clear
6:15 PM 55.4 °F - 53.6 °F 94% 29.78 in 7.0 mi South 9.2 mph - N/A   Clear
6:35 PM 53.6 °F - 53.6 °F 100% 29.79 in 5.0 mi SSW 8.1 mph - N/A   Clear
6:55 PM 53.6 °F - 53.6 °F 100% 29.80 in 4.0 mi SSW 6.9 mph - N/A   Scattered Clouds
7:15 PM 53.6 °F - 53.6 °F 100% 29.80 in 4.0 mi South 6.9 mph - N/A   Clear
7:35 PM 53.6 °F - 53.6 °F 100% 29.80 in 4.0 mi South 8.1 mph - N/A   Clear
7:55 PM 51.8 °F - 51.8 °F 100% 29.80 in 2.5 mi South 5.8 mph - N/A   Clear
8:15 PM 53.6 °F - 53.6 °F 100% 29.81 in 2.5 mi South 8.1 mph - N/A   Mostly Cloudy
8:35 PM 53.6 °F - 53.6 °F 100% 29.81 in 2.5 mi SSW 8.1 mph - N/A   Overcast
8:55 PM 53.6 °F - 53.6 °F 100% 29.82 in 1.2 mi South 9.2 mph - N/A   Overcast
9:15 PM 53.6 °F - 53.6 °F 100% 29.82 in 0.2 mi SSW 8.1 mph - N/A Fog Fog
9:35 PM 53.6 °F - 53.6 °F 100% 29.82 in 0.2 mi SSW 8.1 mph - N/A Fog Fog
9:55 PM 53.6 °F - 53.6 °F 100% 29.82 in 0.2 mi SW 4.6 mph - N/A Fog Fog
10:15 PM 53.6 °F - 53.6 °F 100% 29.82 in 0.2 mi SSW 4.6 mph - N/A Fog Fog
10:35 PM 53.6 °F - 53.6 °F 100% 29.84 in 0.2 mi WNW 13.8 mph - N/A Fog Fog
10:55 PM 53.6 °F - 53.6 °F 100% 29.85 in 0.5 mi West 6.9 mph - N/A Fog Fog
11:15 PM 51.8 °F - 51.8 °F 100% 29.85 in 5.0 mi NNW 12.7 mph 17.3 mph N/A   Mostly Cloudy
11:35 PM 48.2 °F - 46.4 °F 93% 29.87 in 10.0 mi NNW 9.2 mph - N/A   Scattered Clouds
11:55 PM 48.2 °F - 42.8 °F 82% 29.89 in 10.0 mi NNW 11.5 mph - N/A   Scattered Clouds